COSMOS 1275 DEB

Satellite information

Favourite Embed

Satellite Type and Status

DEBRISIN ORBIT

Key statistics

Satellite COSMOS 1275 DEB at a glance.

Uptime

16263

Days in orbit

Revolutions

≈ 14.2

Per day

Orbit

LEO

Low Earth Orbit

Inclination

82.8

Latest

Satellite identification and parameters

Extended collection of information and parameters for COSMOS 1275 DEB.

Object identification

Identified? True

Debris? True

Object name: COSMOS 1275 DEB

International designator: 1981-053LE

Object number (NORAD): 17635

Object ID (CCSDS): 17635

Country: COMMONWEALTH OF INDEPENDENT STATES (CIS)

Current information (Y/N): Y

RCS size: SMALL

Orbital parameters

Period: 101.242 minutes

Inclination: 82.8221 deg

SMA: 7195.62 km

Apoapsis: 842.288 km

Periapsis: 792.682 km

RAAN: 173.1277 deg

Eccentricy: 0.00344695

Argument of periapsis: 119.7558 deg

Mean anomaly: 240.7061 deg

Mean motion: 14.2233015 rev/day

Mean motion (dot): 0.0000542 rev/day2

B* drag term: 0.0024158653 1/REarth

Two-line elements (TLE)

Creation date: Dec. 12, 2025, 10:14 a.m.

Reference frame: TEME

Reference center: EARTH

Epoch: Dec. 12, 2025, 5:21 a.m. UTC

TLE line 0: 0 COSMOS 1275 DEB

TLE line 1: 1 17635U 81053LE 25346.22302653 .00005420 00000-0 24159-2 0 9996

TLE line 2: 2 17635 82.8221 173.1277 0034470 119.7558 240.7061 14.22330150 71581

Live tracking on map

Real-time ground track for satellite COSMOS 1275 DEB.

In-orbit conjunctions

A list of the most updated potential collisions computed for object COSMOS 1275 DEB.

Target Orbit TCA Probability of collision Miss distance Type
CZ-6A DEB SSO 2024-11-10 14:59:44 0.0005457136 322.0 (m) DEBRIS
CZ-6A DEB LEO 2024-10-14 09:25:03 0.0001838815 793.0 (m) DEBRIS
SL-16 DEB LEO 2024-06-05 13:31:43 0.000100536 79.0 (m) DEBRIS

Associated space launch

Navigation satellite providing location information for the Tsiklon-B navigation system

COSMOS 1275 DEB was lifted into orbit during the mission ‘Kosmos-3M | Parus 27’, on board a Kosmos-3M space rocket.

The launch took place on June 4, 1981, 3:41 p.m. from 132/2.

For more information about the launch, click the button.

Launch to space Kosmos-3M | Parus 27
Kosmos-3M | Parus 27

Agency: N/A

Status: Launch Successful

Launch date: June 4, 1981, 3:41 p.m. UTC

Rocket: Kosmos-3M

Launch pad: 132/2

Location: Plesetsk Cosmodrome, Russian Federation

...

Latest news about this satellite

There are no fresh news available about this satellite. Check back as we update our databases every day.


Newsletter sign-up

Weekly statistics, charts and insights to help you stay on top of the space industry.